Starlink 32034

operational
NORAD ID: 60297 Int'l Des: 2024-132 Owner: SPXS Country: US Constellation: starlink
LEOCIRCULAR

关于 Starlink 32034

正在加载描述...

实时位置

正在加载3D地球...

即将过境

高度历史

Altitude vs Time

uPlot chart will show altitude changes over time

两行轨道根数

1 60297U 24132V 25306.22419952 .00022240 00000-0 76329-3 0 9996
2 60297 53.1616 284.5799 0001984 89.7980 270.3248 15.30091886 72045
Epoch: Nov 2, 2025 • Age: 44 hours

当前状态

高度 475.9 km
速度 7.63 km/s
星下点 27.50°N, 126.08°W
发射日期 Jul 28, 2024
运行时间 1.2 years
类型 internet

技术详情

分类 Payload
质量 730.00 kg
干质量 700.00 kg
总质量 730.00 kg
长度 0.30 m
直径 4.10 m
跨度 29.00 m
形状 Box + pan
制造商 SPXS
平台类型 Starlink V2M
阶段状态 In Orbit
所有者/国家 SPXS/US

大型星座

Loading constellations...